Regional Weather Roundup
Issued by NWS Northern Indiana

Home | Current Version | Previous Version | Graphics & Text | Print | Product List | Glossary On
Versions: 1 2 3 4 5 6 7 8 9 10 11 12 13 14 15 16 17 18 19 20 21 22 23 24 25 26 27 28 29 30 31 32 33 34 35 36 37 38 39 40 41 42 43 44 45 46 47 48 49 50
000
ASUS43 KIWX 240000
RWRIWX

KIWX WEATHER ROUNDUP
NATIONAL WEATHER SERVICE NORTHERN INDIANA
800 PM EDT FRI JUN 23 2017

NOTE: "FAIR" INDICATES FEW OR NO CLOUDS BELOW 12,000 FEET WITH NO
SIGNIFICANT WEATHER AND/OR OBSTRUCTIONS TO VISIBILITY.

* THESE STATIONS ARE NOT UNDER NWS QUALITY CONTROL. THEY ALSO MAY NOT
  REPORT WEATHER SUCH AS PRECIPITATION OR FOG.

INZ001>027-240100-
NORTHERN INDIANA

CITY           SKY/WX    TMP DP  RH WIND       PRES   REMARKS
GARY*          PTSUNNY   79  45  29 W15       29.73R
MICHIGAN CITY* MOSUNNY   75  52  43 CALM      29.72S
KNOX*          MOSUNNY   73  43  33 CALM      29.72F
SOUTH BEND     CLOUDY    75  52  44 N5        29.72S
6HR MIN TEMP:  69; 6HR MAX TEMP:  76;

GOSHEN         MOSUNNY   73  48  41 NW7       29.72S
6HR MIN TEMP:  71; 6HR MAX TEMP:  75;

MONTICELLO*    MOSUNNY   74  55  50 CALM      29.73S
6HR MIN TEMP:  69; 6HR MAX TEMP:  76;

FORT WAYNE     PTSUNNY   74  58  57 NW10      29.71R
6HR MIN TEMP:  71; 6HR MAX TEMP:  74; 6HR PCP:  0.04;

PERU/GRISSOM   CLOUDY    73  55  52 NW6       29.72S
6HR MIN TEMP:  70; 6HR MAX TEMP:  75; 6HR PCP: TRACE;


$$
INZ028>050-240100-
CENTRAL INDIANA

CITY           SKY/WX    TMP DP  RH WIND       PRES   REMARKS
LAFAYETTE      CLOUDY    74  60  61 N3        29.73S
6HR MIN TEMP:  69; 6HR MAX TEMP:  76; 6HR PCP: TRACE;

KOKOMO*        MOSUNNY   72  60  66 NW6       29.75R
6HR MIN TEMP:  68; 6HR MAX TEMP:  75; 6HR PCP:  0.04;

MUNCIE*        CLOUDY    73  64  73 NW12      29.73R
6HR MIN TEMP:  69; 6HR MAX TEMP:  73; 6HR PCP:  0.19;

INDIANAPOLIS   CLOUDY    73  63  70 N12       29.74R
6HR MIN TEMP:  69; 6HR MAX TEMP:  74; 6HR PCP:  0.16;


$$
MIZ043>046-050>051-056>058-064>065-071>073-077>080-240100-
SOUTHWEST LOWER MICHIGAN

CITY           SKY/WX    TMP DP  RH WIND       PRES   REMARKS
BATTLE CREEK   CLOUDY    74  52  46 W8        29.71R
6HR MIN TEMP:  73; 6HR MAX TEMP:  76;

BENTON HARBOR  SUNNY     75  51  43 SW6       29.70F
6HR MIN TEMP:  69; 6HR MAX TEMP:  75;

COLDWATER*     CLOUDY    73  51  45 NW9       29.71R
6HR MIN TEMP:  71; 6HR MAX TEMP:  75;

HILLSDALE*     CLOUDY    72  54  53 NW16      29.69S
HOLLAND        SUNNY     71  60  68 W10       29.70S
6HR MIN TEMP:  70; 6HR MAX TEMP:  76;

GRAND RAPIDS   PTSUNNY   76  46  34 W10       29.68R
6HR MIN TEMP:  74; 6HR MAX TEMP:  80;

KALAMAZOO      SUNNY     74  47  38 NW8       29.71R
6HR MIN TEMP:  73; 6HR MAX TEMP:  77;

STURGIS*       MOSUNNY   72  53  52 NW5       29.70F
6HR MIN TEMP:  70; 6HR MAX TEMP:  74;

THREE RIVERS*  FAIR      74  49  41 NW9       29.72R
6HR MIN TEMP:  72; 6HR MAX TEMP:  76;


$$
OHZ001>008-015>018-024>025-240100-
NORTHWEST OHIO

CITY           SKY/WX    TMP DP  RH WIND       PRES   REMARKS
DEFIANCE       PTSUNNY   71  60  68 NW8       29.69R
6HR MIN TEMP:  70; 6HR MAX TEMP:  73; 6HR PCP:  0.01;

FINDLAY        CLOUDY    70  66  87 W8        29.68R
6HR MIN TEMP:  69; 6HR MAX TEMP:  72; 6HR PCP:  0.03;

TOLEDO EXPRESS CLOUDY    73  65  75 W10       29.66R
6HR MIN TEMP:  70; 6HR MAX TEMP:  76; 6HR PCP: TRACE;

TOLEDO METCALF CLOUDY    74  69  85 W7        29.66S
6HR MIN TEMP:  73; 6HR MAX TEMP:  78; 6HR PCP: TRACE;

LIMA           CLOUDY    69  68  96 W6        29.70R
6HR MIN TEMP:  67; 6HR MAX TEMP:  69; 6HR PCP:  0.17;


$$
AND FOR LAKE MICHIGAN COASTAL AND OPEN LAKE BUOY OBSERVATIONS

STATION/POSITION TEMP    WIND        PRES    VSBY  WAVE
                 AIR SEA DIR/SP/G                  HT/PER
                 (F)     (DEG/KT/KT) (MB)    (MI)  (FT/S)
CALUMET HARBOR    80     290/  5/  9 1005.8R
MICHIGAN CITY     74      40/  1/  1   N/A
BURNS HARBOR      74        CALM     1006.8S
SOUTH LAKE BUOY   66 63  210/  8/  8 1005.1          0
4 MI NW BRIDGMAN  70 69  200/  4/  4 1005.8F         1/ 3
MICHIGAN CITY     71 70  200/  2/  2   N/A           1

$$
&&




USA.gov is the U.S. government's official web portal to all federal, state and local government web resources and services.